Provincetown, Massachusetts, United States (02657)
Lat: 42.06N, Lon: 70.18W
Wx Zone: MAZ022
Local Info
Past Weather Observations for Today

NOTE: This archive is for the closest National Weather Service station to Provincetown. Information may differ from the station used for current weather conditions.

Click here for Long-term Archive

Time Weather Temperature Dewpoint Humidity Pressure Winds Precip Visibility
14:56
Overcast
72°F / 22°C 61°F / 16°C 69% 30.15 in
(1021 mb)
NNE 15 mph
(NNE 24 kph)
- 10SM
13:56
Overcast
73°F / 23°C 63°F / 17°C 69% 30.15 in
(1021 mb)
NNE 13.8 mph
(NNE 22 kph)
- 10SM
12:56
Overcast
73°F / 23°C 63°F / 17°C 69% 30.15 in
(1021 mb)
NE 15 mph
(NE 24 kph)
- 10SM
12:06
Mostly Cloudy
75°F / 24°C 63°F / 17°C 65% 30.12 in
(1020 mb)
NE 13.8 mph
(NE 22 kph)
- 10SM
11:56
Mostly Cloudy
75°F / 24°C 63°F / 17°C 65% 30.12 in
(1020 mb)
NE 16.1 mph
(NE 26 kph)
- 10SM
10:56
Partly Cloudy
77°F / 25°C 64°F / 18°C 65% 30.12 in
(1020 mb)
NE 15 mph
(NE 24 kph)
- 10SM
10:43
Partly Cloudy
75°F / 24°C 64°F / 18°C 69% 30.12 in
(1020 mb)
NNE 12.7 mph
(NNE 20 kph)
- 10SM
10:16
Mostly Cloudy
75°F / 24°C 64°F / 18°C 69% 30.12 in
(1020 mb)
NNE 13.8 mph
(NNE 22 kph)
- 10SM
09:56
Partly Cloudy
75°F / 24°C 64°F / 18°C 69% 30.09 in
(1019 mb)
NE 13.8 mph
(NE 22 kph)
- 10SM
08:56
Partly Cloudy
75°F / 24°C 64°F / 18°C 69% 30.09 in
(1019 mb)
NNE 13.8 mph
(NNE 22 kph)
- 10SM
07:56
Clear
73°F / 23°C 64°F / 18°C 74% 30.06 in
(1018 mb)
NE 10.4 mph
(NE 17 kph)
- 10SM
06:56
Partly Cloudy
73°F / 23°C 66°F / 19°C 78% 30.04 in
(1017 mb)
NE 13.8 mph
(NE 22 kph)
- 8SM
06:34
Mostly Cloudy
72°F / 22°C 66°F / 19°C 83% 30.04 in
(1017 mb)
NE 13.8 mph
(NE 22 kph)
- 7SM
05:56
Partly Cloudy
Fog And Mist
72°F / 22°C 68°F / 20°C 88% 30.04 in
(1017 mb)
NE 10.4 mph
(NE 17 kph)
- 5SM
05:19
Mostly Cloudy
Fog And Mist
72°F / 22°C 68°F / 20°C 88% 30.01 in
(1016 mb)
NE 6.9 mph
(NE 11 kph)
- 5SM
05:11
Mostly Cloudy
Fog And Mist
72°F / 22°C 68°F / 20°C 88% 30.01 in
(1016 mb)
NE 6.9 mph
(NE 11 kph)
- 6SM
04:56
Partly Cloudy
Fog And Mist
70°F / 21°C 68°F / 20°C 94% 29.98 in
(1015 mb)
NNE 6.9 mph
(NNE 11 kph)
- 6SM
03:56
Partly Cloudy
Fog And Mist
72°F / 22°C 68°F / 20°C 88% 29.95 in
(1014 mb)
NE 6.9 mph
(NE 11 kph)
- 5SM
03:40
Mostly Cloudy
Fog And Mist
72°F / 22°C 70°F / 21°C 94% 29.95 in
(1014 mb)
NE 8.1 mph
(NE 13 kph)
- 5SM
03:19
Mostly Cloudy
Fog And Mist
70°F / 21°C 68°F / 20°C 94% 29.95 in
(1014 mb)
NNE 5.8 mph
(NNE 9 kph)
- 5SM
02:56
Mostly Cloudy
Fog And Mist
70°F / 21°C 68°F / 20°C 94% 29.95 in
(1014 mb)
N 5.8 mph
(N 9 kph)
- 5SM
01:56
Clear
Fog And Mist
70°F / 21°C 68°F / 20°C 94% 29.95 in
(1014 mb)
Calm - 4SM
00:56
Clear
Fog And Mist
72°F / 22°C 70°F / 21°C 94% 29.92 in
(1013 mb)
NNW 3.5 mph
(NNW 6 kph)
- 4SM
Time Weather Temperature Dewpoint Humidity Pressure Winds Precip Visibility


Weather for websites

WeatherForYou.com, LLC is not responsible for any damages or problems caused by this service. Current weather conditions are obtained from the closest station including government and personal stations which may have varying degrees of accuracy. Weather forecasts are derived from the NOAA NDFD. Like all things, this site belongs to Jesus Christ... He just trusts us to maintain it. If you have any questions or comments email webmaster@weatherforyou.com

Copyright © 2015, WeatherForYou.com LLC. All rights reserved.